Frederick, MD

2:53 AM EDT on June 27, 2017 (GMT -0400)
Frederick Municipal

Weather History for KFDK - August, 2013

Change the Weather History Date:

Monday, August 5, 2013

  Actual Average (KHGR) Record (KHGR)
Temperature  
Mean Temperature 64 °F -  
Max Temperature 78 °F 82 °F 92 °F (2005)
Min Temperature 51 °F 63 °F 57 °F (1997)
Growing Degree Days 14 (Base 50)    
Moisture  
Dew Point 56 °F    
Average Humidity 83    
Maximum Humidity 100    
Minimum Humidity 39    
Precipitation  
Precipitation 0.00 in - - ()
Sea Level Pressure  
Sea Level Pressure 30.09 in    
Wind  
Wind Speed 1 mph (SSE)    
Max Wind Speed 8 mph    
Max Gust Speed -    
Visibility 10 miles    
Events      
Averages and records for this station are not official NWS values.
T = Trace of Precipitation, MM = Missing Value Source: NWS Daily Summary

Daily Weather History Graph

Daily Weather History Graph

Search for Another Location

Airport or City:

Trip Planner

Search our weather history database for the weather conditions in past years. The results will help you decide how hot, cold, wet, or windy it might be!

Date:

Astronomy

Aug. 05, 2013 Rise Set
Actual Time 6:13 AM EDT 8:17 PM EDT
Civil Twilight 5:43 AM EDT 8:46 PM EDT
Nautical Twilight 5:07 AM EDT 9:22 PM EDT
Astronomical Twilight 4:27 AM EDT 10:01 PM EDT
Moon 5:06 AM EDT (8/5) 7:16 PM EDT (8/5)
Length of Visible Light 15h 03m
Length of Day
14h 04m
Waning Crescent, 1% of the Moon is Illuminated
Aug 5
Waning Crescent
Aug 6
New
Aug 14
First Quarter
Aug 20
Full
Aug 28
Last Quarter

Hourly Weather History & Observations

Time (EDT) Temp. Dew Point Humidity Pressure Visibility Wind Dir Wind Speed Gust Speed Precip Events Conditions
12:00 AM 59.0 °F 55.4 °F 88% 30.07 in 10.0 mi Calm Calm - N/A   Clear
12:20 AM 57.2 °F 57.2 °F 100% 30.07 in 10.0 mi East 4.6 mph - N/A   Clear
12:40 AM 57.2 °F 55.4 °F 94% 30.07 in 10.0 mi Calm Calm - N/A   Clear
1:00 AM 55.4 °F 55.4 °F 100% 30.07 in 10.0 mi Calm Calm - N/A   Clear
1:20 AM 55.4 °F 55.4 °F 100% 30.07 in 10.0 mi Calm Calm - N/A   Clear
1:40 AM 55.4 °F 55.4 °F 100% 30.07 in 10.0 mi ESE 3.5 mph - N/A   Clear
2:00 AM 57.2 °F 55.4 °F 94% 30.07 in 10.0 mi Calm Calm - N/A   Clear
2:20 AM 55.4 °F 55.4 °F 100% 30.07 in 10.0 mi SE 4.6 mph - N/A   Clear
2:40 AM 55.4 °F 53.6 °F 94% 30.08 in 10.0 mi Calm Calm - N/A   Clear
3:00 AM 53.6 °F 53.6 °F 100% 30.09 in 10.0 mi Calm Calm - N/A   Clear
3:20 AM 53.6 °F 53.6 °F 100% 30.09 in 10.0 mi Calm Calm - N/A   Clear
3:40 AM 53.6 °F 53.6 °F 100% 30.09 in 10.0 mi Calm Calm - N/A   Clear
4:00 AM 53.6 °F 53.6 °F 100% 30.09 in 10.0 mi Calm Calm - N/A   Clear
4:40 AM 53.6 °F 53.6 °F 100% 30.09 in 10.0 mi Calm Calm - N/A   Clear
5:00 AM 53.6 °F 53.6 °F 100% 30.09 in 10.0 mi SE 3.5 mph - N/A   Clear
5:20 AM 53.6 °F 53.6 °F 100% 30.10 in 10.0 mi Calm Calm - N/A   Clear
5:40 AM 53.6 °F 53.6 °F 100% 30.11 in 10.0 mi Calm Calm - N/A   Clear
6:00 AM 53.6 °F 53.6 °F 100% 30.11 in 7.0 mi Calm Calm - N/A   Clear
6:20 AM 53.6 °F 53.6 °F 100% 30.12 in 10.0 mi Calm Calm - N/A   Clear
6:40 AM 51.8 °F 51.8 °F 100% 30.12 in 0.8 mi Calm Calm - N/A   Mist
6:45 AM 51.8 °F 51.8 °F 100% 30.12 in 4.0 mi Calm Calm - N/A   Clear
7:50 AM 59.0 °F 57.2 °F 94% 30.14 in 10.0 mi Calm Calm - N/A   Clear
8:50 AM 66.2 °F 59.0 °F 78% 30.14 in 10.0 mi Calm Calm - N/A   Clear
9:50 AM 71.6 °F 57.2 °F 60% 30.14 in 10.0 mi Calm Calm - N/A   Clear
10:50 AM 73.4 °F 57.2 °F 57% 30.14 in 10.0 mi Calm Calm - N/A   Clear
11:50 AM 73.4 °F 55.4 °F 53% 30.13 in 10.0 mi South 3.5 mph - N/A   Mostly Cloudy
12:45 PM 75.2 °F 55.4 °F 50% 30.12 in 10.0 mi Calm Calm - N/A   Mostly Cloudy
1:52 PM 77.0 °F 53.6 °F 44% 30.09 in 10.0 mi Variable 3.5 mph - N/A   Scattered Clouds
3:50 PM 78.8 °F 51.8 °F 39% 30.06 in 10.0 mi WNW 8.1 mph - N/A   Mostly Cloudy
4:55 PM 78.8 °F 53.6 °F 42% 30.05 in 10.0 mi Calm Calm - N/A   Scattered Clouds
5:59 PM 77.0 °F 55.4 °F 47% 30.06 in 10.0 mi SW 3.5 mph - N/A   Scattered Clouds
6:45 PM 75.2 °F 55.4 °F 50% 30.06 in 10.0 mi Calm Calm - N/A   Clear
7:54 PM 69.8 °F 62.6 °F 78% 30.07 in 10.0 mi Calm Calm - N/A   Clear
9:00 PM 68.0 °F 60.8 °F 78% 30.07 in 10.0 mi SE 3.5 mph - N/A   Clear
9:20 PM 68.0 °F 59.0 °F 73% 30.06 in 10.0 mi Calm Calm - N/A   Clear
9:40 PM 68.0 °F 59.0 °F 73% 30.06 in 10.0 mi Calm Calm - N/A   Clear
10:00 PM 64.4 °F 60.8 °F 88% 30.06 in 10.0 mi Calm Calm - N/A   Clear
10:40 PM 64.4 °F 59.0 °F 83% 30.06 in 10.0 mi Calm Calm - N/A   Clear
11:25 PM 62.6 °F 59.0 °F 88% 30.07 in 10.0 mi Calm Calm - N/A   Scattered Clouds
11:45 PM 62.6 °F 60.8 °F 94% 30.06 in 10.0 mi Calm Calm - N/A   Mostly Cloudy